• Processing (Info)

  • MPEC 2014-D29 : 2014 DO7

    The following Minor Planet Electronic Circular may be linked-to from your own Web pages, but must not otherwise be redistributed electronically.

    A form allowing access to any MPEC is at the bottom of this page.


    Read MPEC 2014-D28 Read MPEC 2014-D30


    M.P.E.C. 2014-D29                                Issued 2014 Feb. 23, 19:16 UT
    
         The Minor Planet Electronic Circulars contain information on unusual
             minor planets and routine data on comets.  They are published
       on behalf of Commission 20 of the International Astronomical Union by the
              Minor Planet Center, Smithsonian Astrophysical Observatory,
                              Cambridge, MA 02138, U.S.A.
    
                 Prepared using the Tamkin Foundation Computer Network
    
                                  MPC@CFA.HARVARD.EDU
                URL https://www.minorplanetcenter.net/    ISSN 1523-6714
    
                                       2014 DO7
    
    Observations:
         K14D07O* C2014 02 22.22006 08 33 00.52 +09 41 14.4          20.1 VqED029703
         K14D07O  C2014 02 22.22794 08 33 01.08 +09 42 18.5          19.5 VqED029703
         K14D07O  C2014 02 22.23298 08 33 01.44 +09 43 00.7          19.9 VqED029703
         K14D07O  C2014 02 22.23801 08 33 01.94 +09 43 41.4          20.3 VqED029703
         K14D07O  C2014 02 22.25582408 33 03.01 +09 46 06.6          19.3 RtED029H01
         K14D07O  C2014 02 22.25912608 33 03.28 +09 46 33.9          19.7 RtED029H01
         K14D07O  C2014 02 22.26699908 33 03.91 +09 47 38.9          19.4 RtED029H01
         K14D07O  C2014 02 22.27329408 33 04.42 +09 48 30.9          19.6 RtED029H01
         K14D07O  C2014 02 22.34968 08 33 11.13 +09 59 05.0                qED029703
         K14D07O  C2014 02 22.35144 08 33 11.13 +09 59 20.0                qED029703
         K14D07O  C2014 02 22.35321 08 33 11.28 +09 59 36.2          19.4 VqED029703
         K14D07O  C2014 02 22.35499 08 33 11.48 +09 59 50.5          19.6 VqED029703
         K14D07O IC2014 02 22.86201 08 34 16.57 +11 11 28.2          18.9 VuED029958
         K14D07O KC2014 02 22.86856 08 34 17.12 +11 12 25.4          20.0 VuED029958
         K14D07O KC2014 02 22.87512 08 34 17.78 +11 13 22.7          19.7 VuED029958
         K14D07O KC2014 02 22.88181 08 34 18.35 +11 14 20.5          20.2 VuED029958
         K14D07O |C2014 02 23.05830 08 34 40.95 +11 41 56.6          19.1 VuED029807
         K14D07O |C2014 02 23.06212 08 34 41.30 +11 42 30.6          19.5 VuED029807
         K14D07O |C2014 02 23.06594 08 34 41.66 +11 43 04.3          19.4 VuED029807
         K14D07O KC2014 02 23.22723 08 34 59.05 +12 05 13.1          19.4 RqED029H36
         K14D07O KC2014 02 23.23173 08 34 59.40 +12 05 52.9          20.0 RqED029H36
         K14D07O KC2014 02 23.23668 08 34 59.85 +12 06 37.8          20.2 RqED029H36
         K14D07O KC2014 02 23.24183 08 35 00.27 +12 07 23.5          20.1 RqED029H36
         K14D07O  C2014 02 23.24352 08 35 01.78 +12 07 48.2          20.5 VqED029G96
         K14D07O  C2014 02 23.24501 08 35 01.92 +12 08 02.2          19.6 VqED029G96
    
    Observer details:
    703 Catalina Sky Survey.  Observer J. A. Johnson.  Measurers E. J. Christensen,
        A. R. Gibbs, A. D. Grauer, R. E. Hill, J. A. Johnson, R. A. Kowalski,
        S. M. Larson, F. C. Shelly.  0.68-m Schmidt + CCD.
    807 Cerro Tololo.  Observers T. Linder, R. Holmes.  Measurers T. Linder,
        R. Holmes, K. Baker.  0.41-m f/11 Ritchey-Chretien + CCD.
    958 Observatoire de Dax.  Observers P. Dupouy, J. B. de Vanssay.  Measurer
        P. Dupouy.  0.43-m f/2.7 reflector + CCD.
    G96 Mt. Lemmon Survey.  Observer E. J. Christensen.  Measurers
        E. J. Christensen, A. R. Gibbs, A. D. Grauer, R. E. Hill, J. A. Johnson,
        R. A. Kowalski, S. M. Larson, F. C. Shelly.  1.5-m reflector + CCD.
    H01 Magdalena Ridge Observatory, Socorro.  Observer W. H. Ryan.  2.4-m f/8.9
        reflector + CCD.
    H36 Sandlot Observatory, Scranton.  Observer G. Hug.  0.56-m reflector + CCD.
    
    Orbital elements:
    2014 DO7                                                 Earth MOID = 0.0604 AU
    Epoch 2013 Nov. 4.0 TT = JDT 2456600.5                  MPC
    M 294.29486              (2000.0)            P               Q
    n   0.45265310     Peri.   35.00564     -0.97956530     +0.17365814
    a   1.6799346      Node   154.41927     -0.19057009     -0.96267912
    e   0.3984553      Incl.   13.59078     +0.06430294     -0.20758555
    P   2.18           H   23.7           G   0.15           U   7
    Residuals in seconds of arc
    140222 703  1.2+  0.4+    140222 703  0.9-  0.1+    140223 807  0.2+  0.3-
    140222 703  0.3+  0.6-    140222 703  1.0-  1.6+    140223 H36  2.0+  0.0
    140222 703  0.3-  0.0     140222 703  0.4-  1.2+    140223 H36  0.8+  0.3-
    140222 703  1.2+  0.8-    140222 958  1.4+  0.1-    140223 H36  0.4+  0.5+
    140222 H01  0.6+  0.4-    140222 958  0.3+  0.0     140223 H36  0.8-  0.2+
    140222 H01  0.7+  0.3-    140222 958  0.8+  0.1+    140223 G96  0.1-  0.3-
    140222 H01  0.6+  0.3-    140222 958  0.1-  0.4-    140223 G96  0.1-  0.4+
    140222 H01  0.6+  0.3-    140223 807  0.3+  0.3-
    140222 703  1.4+  0.4-    140223 807  0.2+  0.2-
    
    Ephemeris:
    2014 DO7                 a,e,i = 1.68, 0.40, 14                  q = 1.0106
    Date    TT    R. A. (2000) Decl.     Delta      r     Elong.  Phase     V
    2014 01 24    08 22 26.1 -14 35 50   0.2599  1.2088   146.1    27.0    22.4
    ...
    2014 02 08    08 21 44.0 -09 18 38   0.1669  1.1351   150.9    25.0    21.2
    ...
    2014 02 16    08 25 09.2 -01 25 31   0.1247  1.1007   153.3    23.8    20.5
    ...
    2014 02 22    08 32 35.5 +09 11 45   0.09797 1.0777   153.5    24.2    19.9
    2014 02 23    08 34 31.2 +11 32 17   0.09411 1.0741   153.1    24.6    19.9
    2014 02 24    08 36 43.2 +14 04 25   0.09047 1.0707   152.5    25.3    19.8
    ...
    2014 03 02    08 58 31.8 +33 32 47   0.07440 1.0516   143.2    34.3    19.6
    ...
    2014 03 10    10 29 02.3 +64 04 30   0.07373 1.0313   119.5    56.9    20.2
    ...
    2014 03 25    17 23 55.1 +66 56 50   0.1200  1.0115    93.5    79.7    21.9
    
    A. U. Tomatic                (C) Copyright 2014 MPC           M.P.E.C. 2014-D29
    

    Read MPEC 2014-D28 Read MPEC 2014-D30


    MPEC number:

    Enter an MPEC number in one of the following forms:

    • 1997-B01 (the full form)
    • J97B01 (the packed version of the full form)
    • B01 (the abbreviated form)